| time (UTC) | temp F | wind direction | speed MPH | gust MPH | rain 1hr in | rain 24hr in | rain mn in | humidity % | barometer mb |
| 20260507180205 | 53 | 325 | 2.0 | 6.0 | 0.07 | 0.08 | 0.08 | 87 | 1013.6 |
| 20260507175705 | 53 | 315 | 2.0 | 9.0 | 0.06 | 0.07 | 0.07 | 87 | 1013.7 |
| 20260507174705 | 53 | 30 | 4.0 | 10.0 | 0.06 | 0.07 | 0.07 | 86 | 1013.6 |
| 20260507173704 | 54 | 80 | 6.0 | 11.0 | 0.06 | 0.06 | 0.06 | 84 | 1013.0 |
| 20260507173204 | 54 | 61 | 5.0 | 11.0 | 0.05 | 0.05 | 0.05 | 83 | 1012.7 |
| 20260507172205 | 55 | 40 | 5.0 | 17.0 | 0.02 | 0.02 | 0.02 | 80 | 1013.0 |
| 20260507171704 | 56 | 0 | 8.0 | 17.0 | 0.01 | 0.01 | 0.01 | 77 | 1012.7 |
| 20260507171205 | 56 | 0 | 9.0 | 17.0 | 0.01 | 0.01 | 0.01 | 74 | 1012.5 |
| 20260507165705 | 57 | 0 | 7.0 | 16.0 | 0.01 | 0.01 | 0.01 | 74 | 1012.5 |
| 20260507165205 | 57 | 0 | 6.0 | 16.0 | 0.01 | 0.01 | 0.01 | 76 | 1012.2 |
| 20260507164705 | 57 | 0 | 7.0 | 16.0 | 0.01 | 0.01 | 0.01 | 76 | 1012.0 |
| 20260507164205 | 57 | 0 | 6.0 | 11.0 | 0.00 | 0.00 | 0.00 | 77 | 1012.0 |
| 20260507163705 | 57 | 0 | 4.0 | 15.0 | 0.00 | 0.00 | 0.00 | 78 | 1012.2 |
| 20260507163204 | 57 | 0 | 5.0 | 15.0 | 0.00 | 0.00 | 0.00 | 77 | 1012.2 |
| 20260507162204 | 57 | 0 | 5.0 | 13.0 | 0.00 | 0.00 | 0.00 | 77 | 1011.9 |
| 20260507161704 | 57 | 0 | 4.0 | 13.0 | 0.00 | 0.00 | 0.00 | 77 | 1011.8 |
| 20260507161205 | 57 | 0 | 5.0 | 13.0 | 0.00 | 0.00 | 0.00 | 77 | 1011.7 |
| 20260507160704 | 57 | 0 | 5.0 | 14.0 | 0.00 | 0.00 | 0.00 | 77 | 1011.7 |
| 20260507160205 | 58 | 0 | 6.0 | 14.0 | 0.00 | 0.00 | 0.00 | 77 | 1011.5 |
| 20260507155205 | 58 | 0 | 4.0 | 9.0 | 0.00 | 0.00 | 0.00 | 78 | 1011.4 |
| 20260507154704 | 58 | 0 | 4.0 | 13.0 | 0.00 | 0.00 | 0.00 | 78 | 1011.3 |
| 20260507154205 | 58 | 0 | 4.0 | 13.0 | 0.00 | 0.00 | 0.00 | 77 | 1011.0 |
| 20260507153705 | 58 | 0 | 4.0 | 13.0 | 0.00 | 0.00 | 0.00 | 74 | 1010.9 |
| 20260507153205 | 58 | 0 | 4.0 | 12.0 | 0.00 | 0.00 | 0.00 | 74 | 1010.8 |
| 20260507152705 | 59 | 0 | 3.0 | 10.0 | 0.00 | 0.00 | 0.00 | 73 | 1010.7 |
| 20260507151705 | 60 | 0 | 4.0 | 10.0 | 0.00 | 0.00 | 0.00 | 70 | 1010.8 |
| 20260507151204 | 60 | 168 | 5.0 | 10.0 | 0.00 | 0.00 | 0.00 | 69 | 1010.6 |
| 20260507150704 | 61 | 168 | 4.0 | 10.0 | 0.00 | 0.00 | 0.00 | 67 | 1010.6 |
| 20260507150205 | 62 | 221 | 4.0 | 17.0 | 0.00 | 0.00 | 0.00 | 64 | 1010.4 |
| 20260507145704 | 64 | 0 | 4.0 | 17.0 | 0.00 | 0.00 | 0.00 | 59 | 1010.2 |
| 20260507145205 | 65 | 134 | 4.0 | 12.0 | 0.00 | 0.00 | 0.00 | 55 | 1010.0 |
| 20260507144704 | 67 | 151 | 4.0 | 12.0 | 0.00 | 0.00 | 0.00 | 52 | 1009.6 |
| 20260507144205 | 71 | 319 | 2.0 | 7.0 | 0.00 | 0.00 | 0.00 | 48 | 1009.8 |
| 20260507143704 | 71 | 182 | 2.0 | 7.0 | 0.00 | 0.00 | 0.00 | 46 | 1009.5 |
| 20260507143205 | 70 | 294 | 3.0 | 10.0 | 0.00 | 0.00 | 0.00 | 46 | 1009.3 |
| 20260507142704 | 69 | 280 | 3.0 | 10.0 | 0.00 | 0.00 | 0.00 | 47 | 1009.2 |
| 20260507142204 | 70 | 221 | 3.0 | 10.0 | 0.00 | 0.00 | 0.00 | 46 | 1009.1 |
| 20260507141705 | 69 | 253 | 4.0 | 10.0 | 0.00 | 0.00 | 0.00 | 47 | 1009.2 |
| 20260507141204 | 69 | 258 | 5.0 | 10.0 | 0.00 | 0.00 | 0.00 | 47 | 1009.2 |
| 20260507140704 | 69 | 263 | 5.0 | 10.0 | 0.00 | 0.00 | 0.00 | 46 | 1009.3 |
| 20260507140204 | 69 | 213 | 4.0 | 8.0 | 0.00 | 0.00 | 0.00 | 46 | 1009.3 |
| 20260507135704 | 70 | 240 | 4.0 | 8.0 | 0.00 | 0.00 | 0.00 | 45 | 1009.2 |
| 20260507135204 | 70 | 227 | 4.0 | 9.0 | 0.00 | 0.00 | 0.00 | 44 | 1009.2 |
| 20260507134704 | 70 | 186 | 4.0 | 16.0 | 0.00 | 0.00 | 0.00 | 44 | 1009.3 |
| 20260507134205 | 70 | 237 | 5.0 | 16.0 | 0.00 | 0.00 | 0.00 | 45 | 1009.3 |
| 20260507133704 | 72 | 238 | 5.0 | 16.0 | 0.00 | 0.00 | 0.00 | 43 | 1009.3 |
| 20260507133205 | 71 | 265 | 5.0 | 14.0 | 0.00 | 0.00 | 0.00 | 45 | 1009.4 |
| 20260507132704 | 71 | 243 | 5.0 | 14.0 | 0.00 | 0.00 | 0.00 | 44 | 1009.4 |
| 20260507132205 | 71 | 249 | 5.0 | 12.0 | 0.00 | 0.00 | 0.00 | 45 | 1009.5 |
| 20260507131233 | 70 | 244 | 4.0 | 10.0 | 0.00 | 0.00 | 0.00 | 46 | 1009.8 |
| 20260507130722 | 69 | 205 | 4.0 | 10.0 | 0.00 | 0.00 | 0.00 | 48 | 1009.7 |
| 20260507125705 | 69 | 184 | 4.0 | 14.0 | 0.00 | 0.00 | 0.00 | 48 | 1009.8 |
| 20260507125204 | 69 | 195 | 4.0 | 14.0 | 0.00 | 0.00 | 0.00 | 47 | 1009.8 |
| 20260507124705 | 70 | 150 | 3.0 | 9.0 | 0.00 | 0.00 | 0.00 | 46 | 1009.9 |
| 20260507124204 | 70 | 259 | 4.0 | 9.0 | 0.00 | 0.00 | 0.00 | 45 | 1009.7 |
| 20260507123704 | 71 | 292 | 4.0 | 7.0 | 0.00 | 0.00 | 0.00 | 43 | 1009.7 |
| 20260507122705 | 70 | 242 | 3.0 | 7.0 | 0.00 | 0.00 | 0.00 | 46 | 1009.8 |
| 20260507122205 | 69 | 189 | 3.0 | 10.0 | 0.00 | 0.00 | 0.00 | 44 | 1009.8 |
| 20260507121205 | 70 | 211 | 4.0 | 10.0 | 0.00 | 0.00 | 0.00 | 43 | 1009.9 |
| 20260507120705 | 70 | 273 | 3.0 | 11.0 | 0.00 | 0.00 | 0.00 | 44 | 1009.9 |
| 20260507120205 | 70 | 234 | 4.0 | 11.0 | 0.00 | 0.00 | 0.00 | 41 | 1010.0 |
| 20260507115726 | 70 | 263 | 4.0 | 11.0 | 0.00 | 0.00 | 0.00 | 42 | 1010.1 |
| 20260507115204 | 71 | 244 | 4.0 | 9.0 | 0.00 | 0.00 | 0.00 | 43 | 1010.1 |
| 20260507114204 | 71 | 279 | 4.0 | 9.0 | 0.00 | 0.00 | 0.00 | 44 | 1010.1 |
| 20260507113704 | 71 | 209 | 3.0 | 9.0 | 0.00 | 0.00 | 0.00 | 44 | 1010.2 |
| 20260507113205 | 71 | 265 | 4.0 | 9.0 | 0.00 | 0.00 | 0.00 | 44 | 1010.2 |
| 20260507112704 | 71 | 166 | 4.0 | 9.0 | 0.00 | 0.00 | 0.00 | 44 | 1010.2 |
| 20260507112205 | 71 | 200 | 4.0 | 9.0 | 0.00 | 0.00 | 0.00 | 45 | 1010.4 |
| 20260507111704 | 71 | 0 | 3.0 | 8.0 | 0.00 | 0.00 | 0.00 | 47 | 1010.5 |
| 20260507111205 | 71 | 218 | 3.0 | 8.0 | 0.00 | 0.00 | 0.00 | 48 | 1010.5 |
| 20260507110205 | 71 | 217 | 3.0 | 11.0 | 0.00 | 0.00 | 0.00 | 44 | 1010.6 |
| 20260507105705 | 71 | 207 | 5.0 | 10.0 | 0.00 | 0.00 | 0.00 | 45 | 1010.6 |
| 20260507105204 | 70 | 177 | 3.0 | 7.0 | 0.00 | 0.00 | 0.00 | 46 | 1010.7 |
| 20260507104704 | 71 | 200 | 3.0 | 7.0 | 0.00 | 0.00 | 0.00 | 45 | 1010.8 |
| 20260507103704 | 70 | 0 | 3.0 | 10.0 | 0.00 | 0.00 | 0.00 | 48 | 1010.9 |
| 20260507103205 | 68 | 265 | 4.0 | 10.0 | 0.00 | 0.00 | 0.00 | 51 | 1010.9 |
| 20260507102704 | 70 | 208 | 5.0 | 11.0 | 0.00 | 0.00 | 0.00 | 48 | 1011.0 |
| 20260507102205 | 70 | 228 | 4.0 | 11.0 | 0.00 | 0.00 | 0.00 | 52 | 1010.9 |
| 20260507101705 | 70 | 175 | 4.0 | 11.0 | 0.00 | 0.00 | 0.00 | 50 | 1011.0 |
| 20260507100704 | 68 | 192 | 3.0 | 8.0 | 0.00 | 0.00 | 0.00 | 52 | 1011.1 |
| 20260507095704 | 68 | 265 | 4.0 | 7.0 | 0.00 | 0.00 | 0.00 | 53 | 1011.4 |
| 20260507095205 | 68 | 208 | 4.0 | 9.0 | 0.00 | 0.00 | 0.00 | 52 | 1011.3 |
| 20260507094704 | 67 | 0 | 4.0 | 9.0 | 0.00 | 0.00 | 0.00 | 55 | 1011.5 |
| 20260507094204 | 67 | 221 | 3.0 | 9.0 | 0.00 | 0.00 | 0.00 | 53 | 1011.4 |
| 20260507093705 | 69 | 232 | 3.0 | 9.0 | 0.00 | 0.00 | 0.00 | 53 | 1011.5 |
| 20260507093204 | 69 | 257 | 3.0 | 8.0 | 0.00 | 0.00 | 0.00 | 53 | 1011.5 |
| 20260507092705 | 67 | 277 | 4.0 | 8.0 | 0.00 | 0.00 | 0.00 | 55 | 1011.4 |
| 20260507092204 | 67 | 261 | 4.0 | 8.0 | 0.00 | 0.00 | 0.00 | 55 | 1011.4 |
| 20260507091705 | 67 | 227 | 4.0 | 8.0 | 0.00 | 0.00 | 0.00 | 55 | 1011.4 |
| 20260507091204 | 67 | 287 | 4.0 | 8.0 | 0.00 | 0.00 | 0.00 | 56 | 1011.3 |
| 20260507090704 | 66 | 261 | 4.0 | 7.0 | 0.00 | 0.00 | 0.00 | 55 | 1011.4 |
| 20260507090205 | 66 | 210 | 3.0 | 6.0 | 0.00 | 0.00 | 0.00 | 55 | 1011.3 |
| 20260507085704 | 66 | 197 | 3.0 | 6.0 | 0.00 | 0.00 | 0.00 | 56 | 1011.3 |
| 20260507084704 | 66 | 297 | 3.0 | 6.0 | 0.00 | 0.00 | 0.00 | 58 | 1011.3 |
| 20260507084205 | 65 | 282 | 2.0 | 6.0 | 0.00 | 0.00 | 0.00 | 58 | 1011.2 |
| 20260507083704 | 65 | 266 | 2.0 | 7.0 | 0.00 | 0.00 | 0.00 | 59 | 1011.3 |
| 20260507082205 | 65 | 282 | 4.0 | 7.0 | 0.00 | 0.00 | 0.00 | 62 | 1011.2 |
| 20260507081705 | 65 | 255 | 4.0 | 7.0 | 0.00 | 0.00 | 0.00 | 62 | 1011.2 |
| 20260507081205 | 65 | 229 | 3.0 | 6.0 | 0.00 | 0.00 | 0.00 | 63 | 1011.1 |
| 20260507080721 | 64 | 294 | 3.0 | 6.0 | 0.00 | 0.00 | 0.00 | 64 | 1011.1 |
| 20260507075704 | 65 | 257 | 3.0 | 6.0 | 0.00 | 0.00 | 0.00 | 63 | 1011.1 |
| 20260507075204 | 64 | 246 | 2.0 | 3.0 | 0.00 | 0.00 | 0.00 | 67 | 1011.1 |
| 20260507074704 | 63 | 265 | 1.0 | 3.0 | 0.00 | 0.00 | 0.00 | 66 | 1011.1 |
| 20260507074205 | 62 | 202 | 1.0 | 4.0 | 0.00 | 0.00 | 0.00 | 69 | 1011.1 |
| 20260507072205 | 62 | 144 | 3.0 | 7.0 | 0.00 | 0.00 | 0.00 | 71 | 1010.9 |
| 20260507071705 | 61 | 138 | 4.0 | 6.0 | 0.00 | 0.00 | 0.00 | 72 | 1010.8 |
| 20260507071204 | 61 | 146 | 3.0 | 6.0 | 0.00 | 0.00 | 0.00 | 73 | 1010.8 |
| 20260507070704 | 61 | 126 | 3.0 | 6.0 | 0.00 | 0.00 | 0.00 | 73 | 1010.8 |
| 20260507070204 | 61 | 115 | 2.0 | 5.0 | 0.00 | 0.00 | 0.00 | 74 | 1010.8 |
| 20260507065705 | 60 | 119 | 2.0 | 4.0 | 0.00 | 0.00 | 0.00 | 75 | 1010.9 |
| 20260507065205 | 59 | 115 | 2.0 | 4.0 | 0.00 | 0.00 | 0.00 | 76 | 1010.9 |
| 20260507063704 | 57 | 0 | 2.0 | 3.0 | 0.00 | 0.00 | 0.00 | 80 | 1010.9 |
| 20260507063205 | 57 | 0 | 1.0 | 3.0 | 0.00 | 0.00 | 0.00 | 81 | 1010.9 |
| 20260507062704 | 56 | 0 | 1.0 | 3.0 | 0.00 | 0.00 | 0.00 | 81 | 1011.0 |
| 20260507062205 | 56 | 0 | 1.0 | 4.0 | 0.00 | 0.00 | 0.00 | 82 | 1010.9 |
| 20260507061704 | 56 | 0 | 1.0 | 4.0 | 0.00 | 0.00 | 0.00 | 82 | 1010.8 |
| 20260507061205 | 56 | 0 | 1.0 | 4.0 | 0.00 | 0.00 | 0.00 | 83 | 1010.8 |
| 20260507060705 | 56 | 0 | 2.0 | 4.0 | 0.00 | 0.00 | 0.00 | 83 | 1010.7 |
| 20260507060204 | 55 | 0 | 2.0 | 4.0 | 0.00 | 0.00 | 0.00 | 83 | 1010.7 |
| 20260507055705 | 55 | 0 | 2.0 | 3.0 | 0.00 | 0.00 | 0.00 | 84 | 1010.7 |
| 20260507055205 | 55 | 0 | 1.0 | 3.0 | 0.00 | 0.00 | 0.00 | 85 | 1010.7 |
| 20260507054205 | 54 | 0 | 1.0 | 3.0 | 0.00 | 0.00 | 0.00 | 85 | 1010.6 |
| 20260507053704 | 54 | 0 | 2.0 | 3.0 | 0.00 | 0.00 | 0.00 | 85 | 1010.6 |
| 20260507053205 | 54 | 0 | 2.0 | 3.0 | 0.00 | 0.00 | 0.00 | 86 | 1010.6 |
| 20260507052704 | 54 | 0 | 1.0 | 3.0 | 0.00 | 0.00 | 0.00 | 85 | 1010.5 |
| 20260507052205 | 54 | 0 | 1.0 | 3.0 | 0.00 | 0.00 | 0.00 | 85 | 1010.5 |
| 20260507051704 | 54 | 0 | 1.0 | 3.0 | 0.00 | 0.00 | 0.00 | 85 | 1010.2 |
| 20260507051205 | 54 | 0 | 1.0 | 3.0 | 0.00 | 0.00 | 0.00 | 84 | 1010.2 |
| 20260507050204 | 53 | 0 | 2.0 | 4.0 | 0.00 | 0.00 | 0.00 | 84 | 1010.2 |
| 20260507045705 | 53 | 0 | 2.0 | 4.0 | 0.00 | 0.00 | 0.00 | 85 | 1010.1 |
| 20260507045205 | 53 | 0 | 2.0 | 3.0 | 0.00 | 0.00 | 0.00 | 85 | 1010.1 |
| 20260507044704 | 53 | 0 | 2.0 | 3.0 | 0.00 | 0.00 | 0.00 | 86 | 1010.0 |
| 20260507044205 | 53 | 0 | 2.0 | 3.0 | 0.00 | 0.00 | 0.00 | 86 | 1010.0 |
| 20260507043704 | 53 | 0 | 1.0 | 2.0 | 0.00 | 0.00 | 0.00 | 87 | 1010.0 |
| 20260507043205 | 53 | 0 | 0.0 | 2.0 | 0.00 | 0.00 | 0.00 | 87 | 1010.0 |
| 20260507042705 | 53 | 0 | 0.0 | 4.0 | 0.00 | 0.00 | 0.00 | 87 | 1010.0 |
| 20260507041705 | 53 | 0 | 2.0 | 4.0 | 0.00 | 0.00 | 0.00 | 87 | 1009.9 |
| 20260507041204 | 52 | 0 | 2.0 | 4.0 | 0.00 | 0.00 | 0.00 | 88 | 1009.9 |
| 20260507040704 | 52 | 0 | 1.0 | 3.0 | 0.00 | 0.00 | 0.00 | 89 | 1009.8 |
| 20260507035705 | 52 | 0 | 0.0 | 4.0 | 0.00 | 0.00 | 0.00 | 89 | 1009.8 |
| 20260507035205 | 52 | 0 | 1.0 | 4.0 | 0.00 | 0.00 | 0.00 | 88 | 1009.7 |
| 20260507034704 | 52 | 0 | 2.0 | 4.0 | 0.00 | 0.00 | 0.00 | 88 | 1009.7 |
| 20260507034205 | 52 | 0 | 1.0 | 3.0 | 0.00 | 0.00 | 0.00 | 89 | 1009.7 |
| 20260507032205 | 52 | 0 | 1.0 | 2.0 | 0.00 | 0.00 | 0.00 | 89 | 1009.4 |
| 20260507031705 | 52 | 0 | 1.0 | 2.0 | 0.00 | 0.00 | 0.00 | 89 | 1009.4 |
| 20260507030705 | 52 | 0 | 0.0 | 2.0 | 0.00 | 0.00 | 0.00 | 89 | 1009.4 |
| 20260507030205 | 52 | 0 | 0.0 | 2.0 | 0.00 | 0.00 | 0.00 | 89 | 1009.4 |
| 20260507025705 | 52 | 0 | 1.0 | 2.0 | 0.00 | 0.00 | 0.00 | 88 | 1009.4 |
| 20260507025204 | 52 | 0 | 0.0 | 1.0 | 0.00 | 0.00 | 0.00 | 88 | 1009.4 |
| 20260507024204 | 52 | 0 | 0.0 | 1.0 | 0.00 | 0.00 | 0.00 | 88 | 1009.3 |
| 20260507023204 | 53 | 0 | 0.0 | 2.0 | 0.00 | 0.00 | 0.00 | 88 | 1009.2 |
| 20260507022705 | 53 | 0 | 0.0 | 2.0 | 0.00 | 0.00 | 0.00 | 88 | 1009.3 |
| 20260507022205 | 53 | 0 | 0.0 | 2.0 | 0.00 | 0.00 | 0.00 | 88 | 1009.4 |
| 20260507021704 | 53 | 0 | 0.0 | 2.0 | 0.00 | 0.00 | 0.00 | 88 | 1009.3 |
| 20260507021205 | 53 | 0 | 0.0 | 2.0 | 0.00 | 0.00 | 0.00 | 88 | 1009.3 |
| 20260507020722 | 53 | 0 | 0.0 | 1.0 | 0.00 | 0.00 | 0.00 | 88 | 1009.3 |
| 20260507020205 | 53 | 0 | 0.0 | 1.0 | 0.00 | 0.00 | 0.00 | 88 | 1009.2 |
| 20260507015204 | 53 | 0 | 0.0 | 2.0 | 0.00 | 0.00 | 0.00 | 88 | 1009.3 |
| 20260507014705 | 53 | 0 | 0.0 | 2.0 | 0.00 | 0.00 | 0.00 | 88 | 1009.3 |
| 20260507014204 | 53 | 0 | 1.0 | 2.0 | 0.00 | 0.00 | 0.00 | 88 | 1009.3 |
| 20260507013705 | 53 | 0 | 1.0 | 3.0 | 0.00 | 0.00 | 0.00 | 88 | 1009.3 |
| 20260507013204 | 53 | 0 | 1.0 | 3.0 | 0.00 | 0.00 | 0.00 | 88 | 1009.2 |
| 20260507012705 | 53 | 0 | 1.0 | 3.0 | 0.00 | 0.00 | 0.00 | 88 | 1009.2 |
| 20260507012205 | 53 | 0 | 0.0 | 2.0 | 0.00 | 0.00 | 0.00 | 88 | 1009.2 |
| 20260507011212 | 53 | 0 | 0.0 | 3.0 | 0.00 | 0.00 | 0.00 | 87 | 1009.1 |
| 20260507010704 | 53 | 0 | 0.0 | 3.0 | 0.00 | 0.00 | 0.00 | 87 | 1009.1 |
| 20260507010204 | 53 | 0 | 1.0 | 3.0 | 0.00 | 0.00 | 0.00 | 87 | 1009.1 |
| 20260507005705 | 53 | 0 | 1.0 | 2.0 | 0.00 | 0.00 | 0.00 | 87 | 1009.0 |
| 20260507005204 | 53 | 0 | 0.0 | 2.0 | 0.00 | 0.00 | 0.00 | 87 | 1009.0 |
| 20260507004705 | 54 | 0 | 0.0 | 2.0 | 0.00 | 0.00 | 0.00 | 86 | 1009.0 |
| 20260507004204 | 54 | 0 | 1.0 | 3.0 | 0.00 | 0.00 | 0.00 | 86 | 1008.9 |
| 20260507003705 | 54 | 0 | 1.0 | 3.0 | 0.00 | 0.00 | 0.00 | 86 | 1008.9 |
| 20260507003205 | 54 | 0 | 1.0 | 3.0 | 0.00 | 0.00 | 0.00 | 86 | 1008.9 |
| 20260507002704 | 54 | 0 | 1.0 | 3.0 | 0.00 | 0.00 | 0.00 | 87 | 1009.0 |
| 20260507002205 | 54 | 0 | 0.0 | 1.0 | 0.00 | 0.00 | 0.00 | 87 | 1008.9 |
| 20260507001704 | 54 | 0 | 0.0 | 1.0 | 0.00 | 0.00 | 0.00 | 87 | 1008.8 |
| 20260507001205 | 54 | 0 | 0.0 | 1.0 | 0.00 | 0.00 | 0.00 | 87 | 1008.9 |
| 20260507000705 | 54 | 0 | 0.0 | 1.0 | 0.00 | 0.00 | 0.00 | 87 | 1008.9 |
| 20260507000205 | 54 | 0 | 0.0 | 2.0 | 0.00 | 0.00 | 0.00 | 86 | 1008.9 |
| 20260506235705 | 54 | 0 | 0.0 | 2.0 | 0.00 | 0.00 | 0.00 | 86 | 1008.9 |
| 20260506235204 | 54 | 0 | 1.0 | 2.0 | 0.00 | 0.00 | 0.00 | 85 | 1008.9 |
| 20260506234704 | 55 | 0 | 0.0 | 2.0 | 0.00 | 0.00 | 0.00 | 85 | 1008.8 |
| 20260506233704 | 55 | 126 | 1.0 | 2.0 | 0.00 | 0.00 | 0.00 | 84 | 1008.8 |
| 20260506233204 | 56 | 111 | 1.0 | 2.0 | 0.00 | 0.00 | 0.00 | 84 | 1008.9 |
| 20260506232205 | 56 | 244 | 1.0 | 5.0 | 0.00 | 0.00 | 0.00 | 83 | 1008.7 |
| 20260506231704 | 56 | 234 | 2.0 | 5.0 | 0.00 | 0.00 | 0.00 | 83 | 1008.8 |
| 20260506231220 | 56 | 211 | 3.0 | 5.0 | 0.00 | 0.00 | 0.00 | 83 | 1008.6 |
| 20260506230704 | 56 | 202 | 3.0 | 4.0 | 0.00 | 0.00 | 0.00 | 83 | 1008.8 |
| 20260506230205 | 56 | 209 | 2.0 | 4.0 | 0.00 | 0.00 | 0.00 | 83 | 1008.9 |
| 20260506225704 | 56 | 189 | 1.0 | 4.0 | 0.00 | 0.00 | 0.00 | 83 | 1008.8 |
| 20260506225205 | 56 | 150 | 1.0 | 4.0 | 0.00 | 0.00 | 0.00 | 84 | 1008.8 |
| 20260506224705 | 56 | 153 | 1.0 | 4.0 | 0.00 | 0.00 | 0.00 | 84 | 1008.8 |
| 20260506224205 | 56 | 191 | 1.0 | 1.0 | 0.00 | 0.00 | 0.00 | 84 | 1008.7 |
| 20260506223705 | 56 | 116 | 0.0 | 2.0 | 0.00 | 0.00 | 0.00 | 84 | 1008.6 |
| 20260506223204 | 56 | 114 | 0.0 | 2.0 | 0.00 | 0.00 | 0.00 | 83 | 1008.6 |
| 20260506222705 | 56 | 117 | 1.0 | 1.0 | 0.00 | 0.00 | 0.00 | 83 | 1008.6 |
| 20260506221705 | 56 | 112 | 0.0 | 1.0 | 0.00 | 0.00 | 0.00 | 83 | 1008.7 |
| 20260506221205 | 56 | 109 | 0.0 | 1.0 | 0.00 | 0.00 | 0.00 | 83 | 1008.7 |
| 20260506220705 | 56 | 110 | 0.0 | 0.0 | 0.00 | 0.00 | 0.00 | 83 | 1008.8 |
| 20260506220205 | 56 | 108 | 0.0 | 1.0 | 0.00 | 0.00 | 0.00 | 84 | 1008.8 |
| 20260506215704 | 56 | 111 | 0.0 | 1.0 | 0.00 | 0.00 | 0.00 | 83 | 1008.8 |
| 20260506215205 | 56 | 110 | 0.0 | 1.0 | 0.00 | 0.00 | 0.00 | 84 | 1008.7 |
| 20260506214704 | 56 | 112 | 0.0 | 1.0 | 0.00 | 0.00 | 0.00 | 84 | 1008.8 |
| 20260506214205 | 55 | 116 | 0.0 | 1.0 | 0.00 | 0.00 | 0.00 | 84 | 1008.8 |
| 20260506213704 | 56 | 115 | 0.0 | 2.0 | 0.00 | 0.00 | 0.00 | 84 | 1008.8 |
| 20260506213205 | 56 | 119 | 1.0 | 2.0 | 0.00 | 0.00 | 0.00 | 84 | 1008.7 |
| 20260506212704 | 56 | 119 | 1.0 | 1.0 | 0.00 | 0.00 | 0.00 | 84 | 1008.6 |
| 20260506212205 | 56 | 106 | 0.0 | 2.0 | 0.00 | 0.00 | 0.00 | 84 | 1008.6 |
| 20260506211705 | 56 | 107 | 0.0 | 2.0 | 0.00 | 0.00 | 0.00 | 84 | 1008.6 |
| 20260506211205 | 55 | 109 | 0.0 | 2.0 | 0.00 | 0.00 | 0.00 | 84 | 1008.5 |
| 20260506210204 | 56 | 118 | 0.0 | 1.0 | 0.00 | 0.00 | 0.00 | 83 | 1008.4 |
| 20260506205705 | 56 | 119 | 0.0 | 4.0 | 0.00 | 0.00 | 0.00 | 82 | 1008.4 |
| 20260506205204 | 56 | 116 | 1.0 | 4.0 | 0.00 | 0.00 | 0.00 | 82 | 1008.5 |
| 20260506204704 | 57 | 117 | 1.0 | 4.0 | 0.00 | 0.00 | 0.00 | 81 | 1008.4 |
| 20260506204205 | 57 | 116 | 1.0 | 3.0 | 0.00 | 0.00 | 0.00 | 80 | 1008.5 |
| 20260506203704 | 58 | 110 | 0.0 | 3.0 | 0.00 | 0.00 | 0.00 | 79 | 1008.5 |
| 20260506203204 | 58 | 207 | 1.0 | 3.0 | 0.00 | 0.00 | 0.00 | 78 | 1008.5 |
| 20260506202704 | 59 | 190 | 2.0 | 3.0 | 0.00 | 0.00 | 0.00 | 77 | 1008.4 |
| 20260506202205 | 59 | 205 | 1.0 | 2.0 | 0.00 | 0.00 | 0.00 | 78 | 1008.3 |
| 20260506201704 | 58 | 200 | 1.0 | 2.0 | 0.00 | 0.00 | 0.00 | 78 | 1008.2 |
| 20260506201205 | 58 | 0 | 1.0 | 2.0 | 0.00 | 0.00 | 0.00 | 79 | 1008.2 |
| 20260506200704 | 58 | 0 | 1.0 | 2.0 | 0.00 | 0.00 | 0.00 | 79 | 1008.2 |
| 20260506200205 | 59 | 198 | 1.0 | 2.0 | 0.00 | 0.00 | 0.00 | 78 | 1008.3 |
| 20260506195204 | 59 | 187 | 1.0 | 3.0 | 0.00 | 0.00 | 0.00 | 78 | 1008.3 |
| 20260506194705 | 59 | 187 | 1.0 | 3.0 | 0.00 | 0.00 | 0.00 | 78 | 1008.3 |
| 20260506194205 | 59 | 186 | 0.0 | 2.0 | 0.00 | 0.00 | 0.00 | 78 | 1008.3 |
| 20260506193705 | 59 | 203 | 0.0 | 2.0 | 0.00 | 0.00 | 0.00 | 78 | 1008.2 |
| 20260506193204 | 59 | 205 | 0.0 | 2.0 | 0.00 | 0.00 | 0.00 | 79 | 1008.2 |
| 20260506192705 | 58 | 211 | 0.0 | 2.0 | 0.00 | 0.00 | 0.00 | 79 | 1008.1 |
| 20260506192204 | 58 | 205 | 0.0 | 2.0 | 0.00 | 0.00 | 0.00 | 79 | 1008.1 |
| 20260506191704 | 59 | 295 | 0.0 | 2.0 | 0.00 | 0.00 | 0.00 | 78 | 1008.1 |
| 20260506191205 | 59 | 296 | 0.0 | 1.0 | 0.00 | 0.00 | 0.00 | 78 | 1008.2 |
| 20260506190704 | 59 | 270 | 0.0 | 3.0 | 0.00 | 0.00 | 0.00 | 76 | 1008.0 |
| 20260506190205 | 60 | 272 | 0.0 | 3.0 | 0.00 | 0.00 | 0.00 | 75 | 1008.0 |
| 20260506185205 | 61 | 211 | 1.0 | 5.0 | 0.00 | 0.00 | 0.00 | 74 | 1007.6 |
| 20260506184704 | 61 | 0 | 1.0 | 5.0 | 0.00 | 0.00 | 0.00 | 74 | 1007.5 |
| 20260506184205 | 61 | 0 | 2.0 | 5.0 | 0.00 | 0.00 | 0.00 | 74 | 1007.4 |
| 20260506183205 | 61 | 244 | 2.0 | 5.0 | 0.00 | 0.00 | 0.00 | 74 | 1007.3 |
| 20260506182705 | 61 | 253 | 2.0 | 6.0 | 0.00 | 0.00 | 0.00 | 73 | 1007.1 |
| 20260506181705 | 62 | 250 | 2.0 | 7.0 | 0.00 | 0.00 | 0.00 | 72 | 1007.0 |
| 20260506181205 | 62 | 217 | 3.0 | 7.0 | 0.00 | 0.00 | 0.00 | 71 | 1006.9 |
| 20260506180705 | 62 | 196 | 3.0 | 7.0 | 0.00 | 0.00 | 0.00 | 71 | 1006.9 |